Wind_Speed
22 23 24 24 24 23 22 21 22 21 20 19 20 20 20 21 22 22 23 23 23 23 23 24 24 24 25 25 25 25 25 25 25 26 27 28 28 29 30 31 31 31 31
22 21 21 22 21 20 20 20 20 19 18 19 19 19 19 20 21 21 21 21 22 22 22 21 22 23 24 24 25 25 25 25 25 25 25 26 27 28 29 31 31 31 31
20 19 19 18 18 17 18 18 18 17 17 18 18 18 19 20 20 20 19 20 20 20 20 20 20 21 22 22 23 24 24 25 25 26 25 26 26 28 28 30 30 30 30
18 18 17 17 17 17 18 17 16 16 16 17 17 18 18 19 19 19 19 19 18 19 19 19 20 21 21 21 22 23 23 23 24 26 26 26 27 27 28 29 29 30 29
18 17 16 16 16 17 17 16 16 15 15 15 16 16 16 16 17 17 17 17 17 18 19 19 20 20 20 20 21 22 22 23 24 25 25 25 26 27 27 28 28 29 29
18 17 16 16 16 15 15 15 15 14 14 14 15 15 15 15 16 16 16 17 18 18 18 19 19 20 20 21 21 22 23 24 25 25 26 26 26 26 27 28 29 29 29
18 17 16 16 15 14 14 14 14 13 14 14 14 14 14 15 15 16 16 17 18 18 18 19 19 20 20 20 21 22 23 23 24 24 25 25 25 24 25 26 27 28 28
16 16 15 14 14 14 14 13 14 14 14 14 14 13 13 13 14 15 16 16 17 18 18 18 19 19 20 20 20 20 21 21 22 22 23 23 23 23 24 25 26 26 27
15 14 14 13 12 12 12 12 12 12 12 12 12 12 12 12 13 14 15 15 16 16 17 17 18 18 19 19 19 20 20 20 20 21 21 21 22 22 23 24 25 25 24
14 13 13 12 12 12 11 11 12 11 11 12 12 11 12 12 13 13 13 14 14 15 15 15 16 16 16 17 18 18 18 18 18 18 19 20 20 21 22 23 23 23 24
13 12 12 11 11 11 11 11 11 11 11 11 11 12 12 12 13 13 14 13 14 14 14 15 15 15 15 15 15 15 15 16 16 17 18 18 19 19 20 21 21 22 22
11 10 10 10 10 10 11 11 10 11 11 11 11 12 13 13 14 13 14 14 14 13 14 14 14 14 14 14 14 14 15 15 15 15 16 16 17 17 17 18 19 20 21
9 9 9 9 10 10 10 11 11 11 11 12 13 13 13 14 14 13 14 14 14 14 13 13 13 14 14 14 14 14 14 14 15 15 15 15 15 16 16 17 18 19 19
9 9 9 10 10 9 10 10 11 10 11 12 13 13 13 14 14 14 15 15 15 14 13 13 13 13 14 14 14 15 15 14 15 15 14 14 14 14 15 15 16 17 18
8 8 8 9 9 9 9 10 10 11 12 12 13 13 13 14 14 14 14 15 14 14 14 14 13 13 13 14 14 14 14 14 13 13 13 13 14 14 14 14 15 16 16
7 7 8 9 9 9 10 10 10 12 12 12 13 13 13 13 14 14 14 15 15 15 14 14 13 13 14 15 14 14 14 14 13 13 13 14 14 14 14 15 15 17 18
6 6 7 8 9 9 10 10 10 11 12 12 13 13 14 14 15 15 15 15 15 15 15 15 15 14 15 15 15 15 15 15 14 14 14 14 14 15 15 15 15 16 17
5 5 7 8 9 9 10 10 11 12 13 13 13 14 15 15 16 16 16 15 15 16 16 16 16 16 16 16 16 16 16 16 16 15 16 16 15 15 16 16 16 17 17
5 5 7 8 9 10 10 11 12 13 13 13 14 15 16 16 16 17 17 16 17 17 17 17 17 16 16 16 16 17 17 17 17 17 17 17 17 17 16 17 18 18 19
5 6 7 8 9 10 11 12 13 13 13 14 15 16 16 17 17 17 17 18 18 18 18 18 17 17 17 17 17 18 18 19 19 18 17 17 17 18 18 18 18 19 19
5 6 8 9 10 11 11 12 12 12 13 14 16 17 18 18 18 18 19 19 19 19 19 19 19 19 18 18 18 19 19 19 19 19 19 18 18 19 19 19 20 19 20
6 7 8 9 10 10 11 12 12 13 14 16 17 18 18 19 19 20 20 19 19 19 19 19 19 19 19 20 20 20 20 20 20 20 20 20 20 20 20 20 20 20 21
6 7 8 8 9 10 11 13 13 14 15 17 18 19 19 20 20 21 20 19 19 20 20 21 21 21 21 21 22 21 21 21 21 21 22 22 21 21 21 22 22 22 22
6 7 8 9 10 11 12 13 14 16 17 18 18 19 20 20 21 21 21 20 21 21 22 22 22 22 22 22 22 23 23 23 22 22 22 22 22 23 23 23 23 24 24
6 8 9 10 11 12 13 14 16 17 17 18 19 19 20 21 21 21 21 21 22 22 22 22 23 23 23 23 23 24 24 24 23 24 24 24 25 25 24 24 24 25 25
7 8 9 11 11 12 14 15 16 17 18 18 19 20 20 21 21 22 22 22 23 23 23 24 24 24 25 25 25 25 25 25 25 25 25 25 25 25 25 25 26 26 27
Wind_Direction
303 301 298 296 295 293 293 295 293 289 290 287 284 278 276 276 276 278 279 277 278 277 277 275 272 271 269 268 269 268 266 262 259 257 257 257 254 254 253 252 252 252 252
305 305 303 301 300 297 296 296 296 292 289 288 286 281 278 278 280 281 281 278 279 279 279 278 276 276 273 271 269 268 267 265 261 259 259 258 255 256 255 253 252 253 253
308 308 305 306 305 302 304 300 295 293 290 289 287 285 282 280 281 281 282 281 280 279 278 278 278 278 277 272 269 268 267 266 263 261 259 259 258 257 256 254 253 253 254
309 309 307 307 308 304 303 306 304 299 294 292 289 288 286 282 281 282 283 283 281 281 280 281 281 280 278 273 272 271 268 267 267 264 262 260 258 258 257 255 254 253 254
307 306 307 306 308 309 308 307 309 306 301 297 294 291 288 285 282 283 286 285 284 284 282 281 281 280 280 278 275 273 270 269 268 266 265 263 261 259 257 255 254 254 253
307 306 307 308 309 310 312 311 310 307 305 302 298 294 291 289 287 287 288 288 287 287 285 283 283 283 282 281 279 276 273 271 270 268 266 265 263 261 259 256 254 254 254
309 309 307 308 311 312 313 313 312 309 308 307 307 304 299 295 292 290 289 290 289 290 289 286 284 283 283 283 283 279 276 273 272 271 269 267 265 261 260 257 256 253 253
314 316 315 312 311 311 311 312 312 311 310 309 309 309 309 306 302 297 293 293 294 293 291 288 286 285 286 287 287 284 278 277 275 272 271 267 265 262 260 260 257 256 255
316 320 323 324 323 320 319 319 319 318 318 318 319 316 315 313 308 308 306 302 300 300 297 293 293 290 289 289 290 288 284 281 278 275 274 272 269 264 263 261 259 256 257
319 322 325 328 332 330 327 327 326 325 324 326 328 327 324 324 323 323 322 314 310 310 308 305 303 300 299 295 294 292 288 283 281 278 276 274 272 269 265 262 259 257 256
322 326 326 329 334 336 335 334 335 334 331 333 334 335 334 332 332 332 331 327 323 318 315 313 310 307 306 304 303 300 296 290 286 283 281 278 274 272 268 264 259 258 257
324 328 327 329 333 333 336 339 338 338 338 338 337 337 339 339 337 335 334 332 328 324 321 318 315 313 311 309 307 304 300 295 291 290 288 284 280 275 270 266 262 259 260
325 328 328 332 334 333 337 340 341 341 344 344 341 340 342 343 342 340 338 335 331 330 329 324 320 318 317 314 311 309 306 301 295 292 291 289 286 281 274 269 266 262 260
329 331 334 337 340 342 342 345 347 348 348 348 347 345 343 343 343 341 339 336 334 332 331 327 324 324 324 323 317 313 310 307 304 299 294 292 290 287 281 272 268 264 261
334 337 341 342 342 347 350 351 351 350 349 348 346 345 344 343 342 343 343 342 339 334 331 330 327 327 326 326 324 320 314 310 308 306 302 296 294 290 285 279 272 269 265
335 341 347 349 350 351 351 351 351 351 351 349 347 345 344 343 342 343 343 342 341 339 337 335 330 327 325 324 323 322 319 314 309 305 302 299 296 292 287 283 277 272 270
337 342 346 349 352 355 356 355 353 352 349 348 348 348 346 345 343 341 341 339 340 340 338 336 333 329 325 324 323 320 318 316 311 306 303 300 296 292 289 284 279 274 272
345 344 347 350 352 352 351 350 349 347 347 346 345 346 345 343 341 340 339 338 338 336 335 334 332 328 324 322 321 320 318 314 310 306 303 301 298 295 290 285 281 279 275
352 348 347 348 346 344 343 342 342 342 342 342 343 342 340 340 340 338 337 337 337 336 334 333 330 326 323 321 321 320 319 316 313 309 304 301 298 297 294 289 283 279 276
355 346 345 346 344 342 341 341 341 341 341 340 340 340 339 339 339 338 335 334 333 332 331 329 327 327 325 324 323 321 319 317 315 312 307 303 299 298 296 294 290 284 280
346 344 344 346 344 344 344 343 343 342 342 342 340 339 340 340 340 338 335 332 331 331 330 328 326 326 325 325 324 322 320 318 315 312 308 305 302 299 298 295 292 288 284
345 346 343 343 343 345 346 345 342 340 339 340 341 341 340 339 339 338 337 336 334 333 332 330 328 327 326 325 324 323 320 319 316 314 310 306 303 301 300 299 296 291 288
341 344 344 344 346 344 343 344 343 341 340 341 341 339 339 339 339 339 340 338 335 332 331 329 327 326 325 324 322 320 318 317 315 313 311 308 304 302 300 299 297 294 291
347 351 350 347 344 343 343 345 346 344 342 341 340 340 340 340 339 339 338 336 335 333 331 329 327 326 325 323 320 318 317 316 314 312 310 308 305 302 299 298 297 295 293
357 352 348 345 345 346 346 347 346 345 343 342 341 341 341 342 341 341 339 337 336 334 333 332 330 328 326 324 321 319 317 315 312 310 308 307 304 302 299 297 296 295 294
358 351 348 347 347 346 347 347 346 345 345 344 343 344 343 342 342 341 340 338 336 336 334 332 331 329 327 325 323 321 319 316 313 310 309 308 306 304 301 299 297 295 293
Height
5753 5750 5748 5745 5742 5740 5738 5736 5734 5733 5731 5730 5729 5728 5727 5726 5725 5725 5724 5723 5723 5722 5722 5721 5720 5719 5719 5719 5719 5719 5720 5720 5721 5722 5723 5724 5725 5726 5727 5729 5731 5733 5735
5748 5745 5742 5738 5735 5734 5732 5730 5729 5727 5726 5725 5724 5722 5721 5721 5720 5719 5718 5717 5717 5716 5715 5715 5714 5713 5713 5712 5713 5713 5713 5713 5714 5715 5716 5717 5717 5718 5719 5721 5723 5725 5727
5743 5740 5738 5735 5732 5730 5728 5726 5724 5723 5722 5720 5719 5717 5716 5716 5715 5713 5713 5712 5711 5711 5710 5709 5708 5707 5707 5706 5706 5706 5706 5707 5707 5708 5709 5710 5710 5711 5712 5713 5715 5717 5719
5738 5736 5734 5731 5729 5727 5724 5722 5720 5718 5717 5716 5714 5713 5712 5711 5710 5708 5707 5707 5706 5705 5704 5703 5702 5702 5701 5700 5700 5700 5700 5700 5700 5701 5701 5702 5703 5703 5704 5705 5707 5709 5711
5734 5732 5730 5727 5725 5722 5720 5718 5717 5715 5713 5712 5710 5708 5707 5706 5705 5703 5703 5702 5701 5700 5699 5698 5697 5696 5695 5694 5694 5693 5693 5693 5693 5693 5694 5695 5695 5696 5696 5697 5699 5701 5702
5731 5728 5726 5723 5721 5719 5717 5715 5713 5712 5710 5708 5706 5705 5703 5702 5701 5699 5698 5697 5696 5695 5694 5693 5692 5691 5690 5689 5688 5687 5687 5686 5686 5686 5687 5687 5687 5688 5689 5690 5691 5693 5694
5727 5724 5722 5720 5717 5715 5714 5712 5710 5708 5707 5705 5703 5701 5700 5698 5696 5695 5694 5693 5692 5691 5689 5688 5687 5686 5685 5684 5682 5681 5681 5680 5679 5679 5679 5679 5679 5680 5681 5682 5683 5684 5686
5724 5721 5718 5716 5714 5712 5711 5709 5708 5706 5704 5702 5700 5698 5696 5694 5693 5691 5690 5688 5687 5686 5684 5683 5682 5680 5679 5678 5677 5675 5674 5673 5672 5672 5672 5672 5672 5673 5674 5675 5675 5677 5678
5720 5718 5715 5713 5711 5710 5708 5707 5705 5703 5702 5700 5697 5695 5693 5691 5689 5688 5686 5684 5683 5681 5680 5678 5677 5675 5674 5673 5671 5670 5669 5668 5667 5666 5666 5665 5665 5666 5666 5667 5668 5669 5671
5716 5715 5712 5711 5709 5707 5706 5704 5703 5701 5699 5697 5695 5693 5691 5689 5687 5685 5683 5681 5679 5677 5676 5674 5673 5671 5669 5667 5666 5664 5663 5662 5661 5660 5660 5659 5659 5659 5659 5660 5661 5662 5663
5713 5712 5710 5709 5707 5706 5704 5703 5701 5699 5698 5696 5694 5692 5689 5687 5685 5682 5680 5678 5676 5674 5673 5671 5669 5667 5665 5663 5662 5660 5659 5657 5656 5655 5654 5654 5653 5653 5652 5653 5654 5655 5656
5711 5710 5708 5707 5706 5704 5703 5701 5699 5698 5696 5694 5692 5690 5688 5685 5683 5680 5678 5676 5674 5672 5670 5668 5666 5664 5662 5660 5658 5656 5655 5653 5652 5651 5650 5649 5648 5647 5647 5647 5647 5648 5649
5710 5708 5707 5706 5704 5703 5701 5700 5698 5696 5694 5693 5691 5689 5686 5684 5681 5679 5677 5674 5671 5669 5667 5665 5663 5661 5659 5657 5655 5653 5651 5649 5648 5647 5645 5644 5643 5642 5642 5642 5642 5642 5643
5708 5707 5706 5704 5703 5701 5700 5698 5697 5695 5693 5691 5689 5687 5685 5683 5680 5678 5675 5672 5669 5667 5664 5662 5660 5658 5656 5654 5652 5650 5648 5646 5644 5643 5641 5640 5639 5638 5637 5637 5637 5637 5638
5707 5706 5705 5704 5702 5701 5699 5697 5696 5694 5692 5690 5688 5686 5684 5681 5679 5676 5673 5670 5668 5665 5662 5660 5658 5655 5653 5651 5649 5647 5644 5642 5641 5639 5637 5636 5635 5634 5633 5632 5632 5632 5633
5706 5705 5704 5703 5702 5700 5699 5697 5695 5693 5692 5690 5687 5685 5683 5680 5677 5675 5672 5669 5666 5663 5660 5658 5655 5653 5651 5648 5646 5644 5641 5639 5637 5635 5634 5632 5631 5629 5628 5628 5627 5627 5627
5705 5705 5704 5703 5701 5700 5698 5697 5695 5693 5691 5689 5687 5684 5682 5679 5676 5673 5670 5667 5664 5661 5659 5656 5653 5650 5648 5645 5643 5641 5638 5636 5634 5632 5630 5628 5627 5625 5624 5623 5622 5621 5621
5705 5704 5703 5702 5701 5699 5698 5696 5694 5692 5690 5688 5685 5683 5680 5677 5675 5671 5668 5665 5662 5659 5656 5653 5650 5648 5645 5642 5640 5637 5635 5632 5630 5628 5626 5624 5622 5620 5619 5618 5617 5616 5616
5704 5703 5703 5701 5700 5699 5697 5695 5693 5691 5689 5686 5684 5681 5679 5676 5673 5670 5667 5664 5660 5657 5654 5651 5648 5645 5642 5639 5636 5634 5631 5628 5626 5623 5621 5620 5618 5616 5614 5613 5611 5611 5610
5703 5703 5702 5701 5699 5698 5696 5694 5692 5690 5687 5685 5682 5680 5677 5674 5671 5668 5664 5661 5658 5654 5651 5648 5645 5641 5638 5635 5632 5630 5627 5624 5622 5619 5617 5615 5613 5611 5609 5608 5606 5605 5604
5703 5702 5701 5699 5698 5697 5695 5693 5691 5689 5686 5683 5681 5678 5675 5671 5668 5665 5662 5658 5655 5651 5648 5645 5641 5638 5635 5632 5629 5626 5623 5620 5617 5615 5612 5610 5608 5606 5604 5602 5600 5599 5598
5702 5701 5700 5698 5697 5696 5694 5692 5689 5687 5684 5682 5679 5676 5672 5669 5665 5662 5658 5655 5651 5648 5644 5641 5638 5634 5631 5628 5624 5621 5618 5616 5613 5610 5607 5605 5602 5600 5598 5596 5594 5593 5591
5700 5700 5698 5697 5696 5694 5692 5690 5688 5685 5683 5680 5676 5673 5670 5666 5662 5659 5655 5651 5648 5644 5641 5637 5633 5630 5627 5623 5620 5616 5613 5611 5608 5605 5602 5599 5596 5594 5592 5590 5588 5586 5584
5699 5698 5697 5696 5695 5693 5691 5689 5686 5683 5680 5677 5674 5671 5667 5663 5659 5655 5652 5648 5644 5640 5636 5633 5629 5625 5622 5618 5615 5611 5608 5605 5602 5599 5596 5593 5590 5587 5585 5582 5580 5578 5576
5698 5697 5696 5695 5694 5692 5690 5687 5684 5682 5679 5675 5672 5668 5664 5660 5656 5652 5648 5644 5640 5637 5633 5629 5625 5621 5617 5613 5609 5605 5602 5598 5595 5592 5589 5586 5583 5580 5577 5575 5572 5570 5568
5698 5697 5696 5694 5692 5690 5688 5686 5683 5680 5676 5673 5670 5666 5662 5658 5653 5649 5645 5641 5637 5633 5629 5625 5620 5616 5612 5607 5603 5599 5595 5591 5588 5584 5581 5578 5575 5572 5569 5566 5564 5561 5559